Location: Aalsum
(53.3404°N, 6.0062°E)
Time: 09:08:55
(UTC+00:00)

Lacrosse 4 Rocket - Pass Details

Date: 28 January 2023
Orbit: 535 x 609 km, 68.0° (Epoch: 19 March)

Event Time Altitude Azimuth Distance (km) Brightness Sun altitude
Rises 17:12:58 0° 278° (W) 2,880 6.3 -9.3°
Reaches altitude 10° 17:16:01 10° 300° (WNW) 1,975 4.8 -9.7°
Maximum altitude 17:18:50 16° 339° (NNW) 1,599 3.7 -10.1°
Drops below altitude 10° 17:21:39 10° 19° (NNE) 1,965 3.8 -10.5°
Enters shadow 17:22:51 - 30° (NNE) 2,287 4.0 -10.7°
